RH
28 27 25 23 22 24 24 25 26 22 21 27 27 24 21 19 20 26 25 22 26 29 34 38 40 41 40 37 41 64 78 63 78 88 90 99 100 98 95 98 99 100 97 100
28 30 23 23 24 25 27 30 29 24 22 27 27 26 22 19 23 24 22 24 29 32 33 34 36 40 42 45 45 52 58 78 83 69 49 62 94 100 100 100 100 99 98 99
28 25 26 26 28 32 29 31 30 33 29 24 25 24 20 23 21 22 24 28 31 33 32 32 31 34 35 41 45 44 40 45 48 55 84 51 44 54 91 100 100 100 100 100
27 26 28 28 29 26 33 25 32 35 36 35 25 36 21 23 21 22 28 31 32 32 31 31 34 36 37 41 45 46 45 41 40 30 40 49 87 56 44 46 66 90 98 100
26 27 28 29 27 28 34 31 36 35 36 35 30 33 24 24 24 24 29 32 32 35 35 36 38 39 39 41 44 41 35 42 38 35 27 32 45 70 52 47 44 43 55 71
30 27 28 30 28 31 30 34 32 32 34 40 27 31 25 28 26 25 31 34 35 36 36 39 40 41 42 44 48 34 27 25 32 35 36 28 24 40 51 47 49 53 54 56
34 34 31 33 35 30 30 37 47 40 42 37 30 34 29 26 23 25 34 36 37 38 41 41 40 41 42 45 50 55 57 58 59 63 73 75 71 59 35 44 64 82 54 55
44 45 34 27 31 37 38 41 52 63 44 39 30 39 32 25 35 38 40 40 42 44 44 41 39 41 45 50 54 60 64 70 71 74 74 82 79 80 84 48 44 56 89 91
50 49 33 31 31 35 42 44 36 52 47 54 32 34 28 30 37 40 41 44 46 44 42 38 39 44 51 52 57 68 73 77 82 85 87 94 92 94 94 75 57 52 54 67
48 69 42 38 35 35 39 35 54 57 87 60 34 30 30 33 40 40 40 44 40 39 35 38 43 50 52 57 65 70 79 81 86 94 95 100 94 97 98 84 61 60 82 73
45 66 64 54 51 46 47 51 48 50 56 69 60 41 33 32 37 44 45 41 36 34 40 44 45 47 55 61 66 83 91 97 100 95 98 99 97 96 60 54 66 58 54 53
51 72 92 70 49 44 46 52 50 88 73 84 89 71 38 44 41 41 38 39 35 39 42 42 46 49 53 63 70 89 94 98 99 98 99 100 94 63 59 54 50 52 56 55
70 94 97 76 48 40 50 47 45 61 92 88 88 64 41 40 46 37 33 34 33 34 36 43 46 52 61 62 74 81 91 98 98 98 100 99 92 67 54 53 52 49 50 50
78 92 96 92 63 72 96 58 55 71 98 71 68 55 43 51 38 32 29 29 32 35 35 42 43 52 54 61 74 88 99 100 98 100 100 98 79 62 57 54 51 48 55 58
93 100 99 95 87 80 83 85 85 87 79 90 68 64 47 36 36 31 31 34 36 34 37 45 52 54 64 73 92 98 98 99 100 100 100 99 78 70 62 54 51 56 58 66
94 100 93 100 60 56 63 56 60 66 67 64 62 54 29 27 24 25 28 31 35 34 40 54 57 65 88 92 97 95 98 100 100 100 100 93 82 77 72 66 64 65 65 65
100 100 91 84 59 54 67 64 50 44 41 45 50 31 23 23 25 30 32 34 41 45 57 56 56 84 93 96 100 99 99 99 99 100 99 90 88 84 81 78 75 74 74 72
100 99 96 87 63 87 44 31 31 39 31 26 24 20 26 28 31 36 42 46 54 58 63 63 80 95 96 99 97 100 99 98 98 98 100 93 87 83 81 78 78 81 80 77
97 98 94 90 66 46 39 45 39 34 28 17 32 34 29 28 35 38 42 56 61 75 81 89 91 92 98 98 99 98 99 99 98 99 100 87 85 84 79 78 81 78 79 79
97 99 96 86 87 66 31 37 43 38 29 34 62 45 43 54 66 45 54 77 86 85 93 94 88 93 87 97 100 100 100 100 100 100 98 88 89 80 76 76 79 81 82 78
78 89 90 79 78 48 25 44 51 53 52 41 34 41 45 61 56 55 70 81 91 98 94 82 75 77 80 93 99 100 100 100 98 99 97 85 83 83 78 81 83 77 81 90
53 60 65 61 72 62 37 56 56 39 36 31 37 44 48 52 53 67 94 98 81 77 72 69 76 79 82 96 97 99 100 100 100 100 100 91 75 73 79 80 77 81 93 100
40 34 40 39 33 30 47 46 43 41 54 42 42 47 52 60 69 85 92 76 70 69 65 63 69 79 82 89 93 84 93 100 100 100 92 89 73 81 88 96 98 100 97 95
29 32 38 36 21 26 34 43 37 42 43 39 37 47 63 72 92 92 74 70 70 67 64 59 66 72 75 80 86 80 82 98 100 100 98 94 84 84 96 99 100 100 99 100
25 34 36 53 39 32 30 30 31 33 35 40 48 63 71 86 99 85 73 71 72 71 60 58 65 70 72 78 82 75 84 92 99 100 100 97 95 99 100 99 100 98 98 100
26 29 53 44 27 37 31 30 35 42 39 44 49 60 66 78 86 80 76 71 72 68 59 59 60 66 73 84 84 79 84 93 97 100 100 100 99 100 100 100 92 80 90 100
Wind_Speed
7 10 8 1 5 6 7 10 13 14 13 12 14 18 21 24 10 5 3 3 6 9 11 13 16 17 17 17 18 19 20 20 12 9 14 16 25 28 27 32 37 38 38 38
6 11 4 3 5 7 7 10 13 19 14 18 17 20 24 19 3 2 3 5 7 7 9 11 13 15 16 17 16 18 18 18 17 16 14 15 13 17 22 29 33 35 33 36
6 2 3 6 6 7 10 10 16 17 24 20 13 17 7 7 10 9 8 9 8 8 9 12 15 16 16 18 19 19 18 18 18 16 14 13 13 12 12 9 13 15 23 29
6 3 5 6 7 8 15 11 12 18 15 14 17 10 16 11 9 8 9 8 7 8 10 12 14 16 17 18 18 19 19 19 18 20 19 15 13 14 14 11 13 14 10 13
2 5 9 15 16 8 12 11 13 18 17 20 18 12 4 9 8 8 7 6 7 8 10 13 15 15 16 18 20 21 22 20 21 21 22 22 18 16 15 12 11 12 16 21
13 5 7 13 13 12 11 11 15 16 10 9 6 10 5 3 5 9 6 4 6 7 9 12 15 18 21 21 20 23 23 24 23 24 23 20 23 22 18 18 18 18 17 16
4 8 4 5 9 3 6 12 6 6 7 9 4 8 11 8 9 8 4 3 6 8 11 16 19 21 21 21 22 22 22 24 24 23 24 21 20 21 25 23 21 18 21 23
5 4 5 5 3 6 13 6 4 7 9 15 20 11 5 10 11 9 3 4 8 14 16 19 22 22 22 22 23 24 24 26 25 25 24 23 23 19 18 21 21 21 18 20
5 5 2 4 4 5 2 5 4 11 17 11 6 5 8 12 10 3 3 10 15 18 21 24 22 20 21 22 24 25 26 29 30 30 27 24 22 20 19 20 20 20 20 23
2 6 8 8 6 9 11 4 5 4 5 8 10 17 14 14 10 3 6 15 20 21 24 21 21 22 24 25 27 28 27 29 32 31 26 22 18 16 15 17 19 19 17 19
5 7 3 1 9 11 8 10 7 4 6 5 11 2 6 6 6 3 12 19 21 22 20 20 23 24 24 26 28 29 30 30 34 32 25 20 15 12 15 15 15 15 18 19
3 2 5 9 4 7 11 12 14 5 7 6 8 14 8 8 2 11 22 22 21 18 19 22 22 23 25 26 30 29 32 33 41 30 22 18 9 9 9 11 11 13 16 17
5 4 3 3 3 4 8 11 15 8 1 15 13 9 8 2 10 18 19 19 21 21 22 22 23 25 26 28 30 34 33 38 40 27 19 5 5 8 9 11 12 14 16 16
4 4 8 11 13 6 5 10 12 12 8 18 17 25 10 13 17 18 23 25 23 22 23 23 26 27 28 31 33 34 38 43 29 18 7 6 7 7 9 13 15 16 15 15
3 5 4 7 9 11 15 14 15 17 19 11 16 18 17 15 12 20 22 19 20 23 23 24 27 30 29 31 31 37 44 32 9 6 5 1 4 10 12 13 15 16 16 15
2 2 2 4 12 13 17 17 20 22 20 19 17 19 10 11 20 19 18 19 22 23 24 26 28 29 27 29 30 39 36 22 3 5 3 2 5 10 14 16 17 17 16 15
5 3 3 6 1 6 14 19 21 17 12 11 13 11 11 12 13 18 22 24 24 22 25 28 26 24 24 27 27 30 30 16 7 5 8 9 11 14 16 19 22 21 21 21
6 4 3 3 3 7 5 2 3 9 8 10 12 12 7 12 15 17 20 19 20 23 28 26 23 20 21 22 25 22 23 22 18 12 11 11 13 15 16 19 23 25 25 26
3 4 3 4 7 10 13 6 7 7 10 10 8 6 10 15 17 17 12 19 22 24 24 20 16 19 17 19 19 19 22 25 18 18 16 15 16 16 18 20 21 23 25 27
4 1 5 4 5 6 6 8 4 1 9 9 6 6 12 12 9 9 18 19 17 15 15 14 17 15 16 17 17 18 18 19 19 22 20 16 16 18 19 20 21 21 22 24
5 3 9 8 7 8 1 11 8 3 2 9 8 12 13 10 15 20 16 16 13 11 12 14 15 15 15 15 16 15 17 20 21 21 19 18 18 19 20 22 24 24 24 25
10 7 5 7 6 10 12 12 6 3 4 9 13 14 14 16 17 16 15 13 13 11 11 13 14 14 14 12 14 16 16 19 20 20 19 20 19 20 20 22 23 24 24 24
6 5 2 7 5 3 19 8 16 7 7 11 14 15 14 17 16 15 15 14 14 11 10 11 13 14 13 13 14 16 17 19 20 20 20 20 20 20 20 21 19 23 21 22
6 6 4 3 9 15 16 19 21 19 20 18 17 17 16 18 17 16 16 15 14 11 10 10 11 12 12 12 13 14 17 18 19 20 21 21 22 23 24 25 20 21 23 22
4 9 8 9 15 18 22 20 20 21 19 15 15 16 17 16 16 15 16 15 13 12 10 8 10 11 12 12 12 14 16 18 19 19 19 20 21 23 23 24 19 21 21 19
12 8 6 4 4 9 14 12 11 12 14 16 18 18 17 17 19 17 17 15 13 11 9 9 10 11 12 13 13 14 14 16 18 19 19 21 23 24 22 25 26 22 20 19
Wind_Direction
207 241 227 203 245 304 285 286 295 303 332 318 287 289 286 293 285 258 304 80 71 62 48 39 35 30 28 28 25 22 17 23 358 311 295 280 270 270 273 263 259 249 249 248
209 243 297 218 219 224 247 284 289 304 310 319 298 289 280 288 17 88 160 98 81 74 54 46 38 32 28 23 24 21 20 14 11 15 19 360 315 264 245 237 247 254 245 243
284 24 339 228 189 223 251 278 293 304 314 298 310 291 144 98 120 123 115 105 87 65 43 32 26 22 18 13 9 5 359 354 354 355 348 352 355 331 295 248 221 212 236 239
284 14 268 236 244 274 288 308 298 301 304 300 328 292 290 154 141 132 115 97 74 49 36 26 17 9 5 1 356 352 352 350 341 335 332 329 329 329 332 334 302 297 237 237
258 249 255 277 283 284 283 315 290 289 281 292 278 265 290 148 161 138 115 93 61 38 21 8 3 357 353 350 348 343 337 333 330 330 322 314 306 301 298 299 303 316 305 285
265 272 262 279 293 292 294 286 279 270 277 259 299 242 290 147 165 140 131 83 37 12 3 355 352 346 340 339 336 330 326 320 313 307 303 298 290 287 281 282 279 273 284 288
257 247 255 273 262 213 235 318 298 264 215 269 86 288 287 100 128 145 133 36 9 355 349 341 338 336 334 329 326 324 322 319 316 310 302 298 287 277 276 280 282 285 274 262
273 216 180 154 297 320 302 278 274 297 293 302 315 264 121 127 136 135 97 9 356 345 337 335 332 328 326 324 325 320 313 310 309 305 297 293 288 274 273 272 272 275 271 266
259 238 139 217 264 294 125 247 9 284 269 276 230 145 165 163 161 167 4 345 333 332 330 329 328 324 319 317 317 316 312 311 312 309 298 295 287 273 271 269 264 268 271 274
318 279 238 279 263 242 244 17 246 212 277 276 271 282 310 180 182 243 316 334 327 326 326 325 322 319 317 317 317 315 313 310 313 307 294 287 272 271 275 279 274 267 271 266
270 206 122 78 218 262 220 236 235 293 252 269 304 351 26 124 151 264 330 323 323 321 319 319 317 318 319 318 318 311 316 308 314 309 293 277 266 265 271 270 269 271 270 268
209 233 218 229 257 271 259 263 229 222 211 233 272 284 102 122 137 317 328 324 322 317 316 318 318 318 318 318 321 318 315 308 320 303 290 263 252 264 278 282 283 280 275 274
187 204 283 210 219 189 222 220 232 232 343 246 262 262 157 202 313 317 324 320 319 322 319 317 319 319 321 323 323 319 313 313 316 291 294 225 271 282 300 313 315 308 298 288
196 206 195 250 274 350 210 222 234 239 249 258 248 280 273 304 324 331 321 321 322 318 321 321 324 324 323 324 323 321 316 321 305 302 240 205 291 312 339 336 331 319 310 298
168 239 222 254 276 269 262 265 231 226 236 257 287 291 297 322 324 313 312 310 316 318 319 323 323 323 322 324 325 325 331 318 280 293 191 234 331 359 339 330 330 328 323 314
139 237 217 247 257 259 265 252 242 238 243 263 270 277 296 313 307 307 309 318 307 311 317 319 323 325 323 326 329 336 338 347 317 217 118 49 19 2 351 347 345 341 330 321
174 198 200 269 161 293 272 238 239 245 246 252 258 292 313 296 309 318 312 306 302 309 313 314 320 320 322 326 329 336 354 357 24 80 77 38 11 357 349 344 343 339 341 336
167 183 182 274 261 255 75 98 201 212 223 245 266 284 287 309 304 306 303 304 298 302 308 313 317 318 323 326 330 338 348 1 4 0 15 8 350 337 336 337 338 337 338 341
174 172 193 237 230 302 222 202 198 212 256 265 257 245 302 307 309 299 323 323 306 301 302 311 319 318 322 326 330 339 336 339 344 344 352 342 331 327 327 328 328 328 329 332
98 199 212 162 249 267 88 141 124 215 267 155 145 279 302 306 295 300 329 321 310 303 307 318 325 322 324 330 335 335 336 339 341 343 344 339 330 325 322 321 318 320 322 323
176 179 222 222 256 279 329 154 151 222 91 163 282 277 281 274 272 295 302 302 304 311 319 328 323 320 323 329 340 344 339 346 345 342 338 333 330 329 325 321 321 318 316 316
182 189 194 213 233 257 154 157 206 112 206 277 286 286 282 279 286 288 290 290 301 308 322 329 321 320 320 327 337 343 340 339 342 341 340 344 347 345 339 333 332 327 317 313
213 213 210 212 230 118 187 212 218 225 251 282 287 284 284 284 284 284 285 288 295 302 319 323 313 312 321 329 336 340 337 337 342 342 345 344 347 347 344 333 327 327 332 322
224 197 229 222 243 243 238 244 251 253 270 282 284 282 283 282 275 277 278 284 291 298 315 315 310 311 318 324 328 336 335 337 335 337 342 343 345 348 345 342 341 331 335 326
198 178 228 249 266 269 265 267 263 271 265 277 281 276 281 273 263 269 274 281 283 295 308 309 308 308 312 317 322 329 332 336 336 335 336 340 345 346 340 342 336 338 337 323
201 210 206 242 281 263 284 294 278 274 273 280 287 278 279 271 268 268 272 275 278 289 297 297 300 302 309 311 318 325 328 330 331 330 333 337 348 346 336 339 344 346 342 333